Location: Bron Breck
(40.6655°N, 111.8083°W)
Time: 23:25:50
(UTC+00:00)

Envisat - Pass Details

Date: 13 March 2021
Orbit: 764 x 766 km, 98.1° (Epoch: 12 April)

Event Time Altitude Azimuth Distance (km) Brightness Sun altitude
Rises 12:09:23 0° 26° (NNE) 3,239 6.8 -18.2°
Reaches altitude 10° 12:12:07 10° 40° (NE) 2,307 6.2 -17.7°
Maximum altitude 12:16:13 24° 94° (E) 1,533 5.4 -16.9°
Drops below altitude 10° 12:20:18 10° 148° (SSE) 2,293 5.7 -16.2°
Sets 12:22:59 0° 162° (SSE) 3,214 6.3 -15.7°
